EA4LT-13 Weather Reports


Display with metric or nautical units.
time (UTC)temp
F
wind
direction
speed
MPH
gust
MPH
rain 1hr
in
rain 24hr
in
rain mn
in
humidity
%
barometer
mb
20260905224402 80 202 1.0 6.0 0.00 0.00 0.00 46 1019.0
20260905222901 80 180 1.0 4.0 0.00 0.00 0.00 46 1019.1
20260905221401 80 158 1.0 4.0 0.00 0.00 0.00 45 1018.8
20260905215902 81 180 3.0 6.0 0.00 0.00 0.00 44 1019.1
20260905214401 82 180 3.0 6.0 0.00 0.00 0.00 43 1019.1
20260905212901 83 158 3.0 6.0 0.00 0.00 0.00 43 1019.0
20260905211402 83 180 3.0 6.0 0.00 0.00 0.00 43 1019.2
20260905205901 83 180 3.0 4.0 0.00 0.00 0.00 43 1019.0
20260905204401 83 158 3.0 4.0 0.00 0.00 0.00 43 1018.8
20260905202900 84 158 2.0 6.0 0.00 0.00 0.00 43 1018.8
20260905201400 84 135 3.0 6.0 0.00 0.00 0.00 42 1018.5
20260905195901 84 135 3.0 6.0 0.00 0.00 0.00 42 1018.5
20260905194403 85 135 2.0 6.0 0.00 0.00 0.00 41 1018.4
20260905192901 86 180 3.0 8.0 0.00 0.00 0.00 40 1018.5
20260905191400 87 158 4.0 10.0 0.00 0.00 0.00 39 1018.2
20260905185900 88 158 4.0 10.0 0.00 0.00 0.00 38 1018.0
20260905184401 90 180 5.0 9.0 0.00 0.00 0.00 35 1017.9
20260905182859 91 158 2.0 3.0 0.00 0.00 0.00 35 1017.7
20260905181400 92 158 1.0 3.0 0.00 0.00 0.00 34 1017.8
20260905175900 93 180 2.0 3.0 0.00 0.00 0.00 32 1017.8
20260905174400 93 180 2.0 4.0 0.00 0.00 0.00 32 1017.8
20260905172901 94 158 1.0 6.0 0.00 0.00 0.00 31 1018.0
20260905171359 94 292 2.0 6.0 0.00 0.00 0.00 31 1018.2
20260905165900 93 292 3.0 6.0 0.00 0.00 0.00 32 1018.2
20260905164400 94 180 2.0 8.0 0.00 0.00 0.00 31 1017.9
20260905162901 94 158 6.0 10.0 0.00 0.00 0.00 31 1017.8
20260905161401 94 180 1.0 6.0 0.00 0.00 0.00 32 1018.0
20260905155900 92 225 3.0 8.0 0.00 0.00 0.00 33 1018.1
20260905154400 93 135 6.0 11.0 0.00 0.00 0.00 32 1018.1
20260905152900 92 180 3.0 11.0 0.00 0.00 0.00 32 1018.1
20260905151359 93 180 7.0 10.0 0.00 0.00 0.00 31 1018.1
20260905145900 93 158 2.0 12.0 0.00 0.00 0.00 31 1018.2
20260905144400 93 180 5.0 12.0 0.00 0.00 0.00 31 1018.5
20260905142900 93 135 8.0 15.0 0.00 0.00 0.00 31 1018.5
20260905141359 93 180 9.0 13.0 0.00 0.00 0.00 31 1018.7
20260905135858 92 158 7.0 12.0 0.00 0.00 0.00 33 1018.7
20260905134400 93 180 9.0 15.0 0.00 0.00 0.00 33 1018.8
20260905132858 90 158 8.0 13.0 0.00 0.00 0.00 35 1019.0
20260905131359 90 158 7.0 12.0 0.00 0.00 0.00 35 1018.9
20260905125858 90 180 7.0 12.0 0.00 0.00 0.00 35 1019.0
20260905124358 89 180 7.0 15.0 0.00 0.00 0.00 36 1019.2
20260905122900 89 180 9.0 17.0 0.00 0.00 0.00 37 1019.4
20260905121358 89 135 6.0 15.0 0.00 0.00 0.00 39 1019.5
20260905115859 87 135 3.0 6.0 0.00 0.00 0.00 41 1019.7
20260905114359 86 180 5.0 12.0 0.00 0.00 0.00 42 1019.8
20260905112859 87 158 3.0 8.0 0.00 0.00 0.00 42 1019.8
20260905111359 86 135 6.0 10.0 0.00 0.00 0.00 42 1020.0
20260905105858 85 180 5.0 8.0 0.00 0.00 0.00 43 1020.1
20260905104359 85 158 5.0 11.0 0.00 0.00 0.00 42 1020.0
20260905102859 85 180 4.0 9.0 0.00 0.00 0.00 41 1019.6
20260905101358 84 180 3.0 8.0 0.00 0.00 0.00 41 1019.8
20260905095859 84 180 3.0 6.0 0.00 0.00 0.00 41 1019.3
20260905094358 84 180 3.0 6.0 0.00 0.00 0.00 42 1019.3
20260905092858 83 158 1.0 6.0 0.00 0.00 0.00 43 1019.1
20260905091358 83 158 4.0 8.0 0.00 0.00 0.00 42 1019.0
20260905085858 84 225 3.0 4.0 0.00 0.00 0.00 41 1018.9
20260905084357 83 225 1.0 3.0 0.00 0.00 0.00 42 1018.5
20260905082858 82 225 0.0 3.0 0.00 0.00 0.00 41 1018.6
20260905081357 82 202 2.0 6.0 0.00 0.00 0.00 42 1018.6
20260905075857 81 202 1.0 4.0 0.00 0.00 0.00 43 1018.4
20260905074359 82 202 3.0 4.0 0.00 0.00 0.00 43 1018.2
20260905072856 80 225 0.0 3.0 0.00 0.00 0.00 44 1018.1
20260905071358 79 202 2.0 4.0 0.00 0.00 0.00 46 1018.1
20260905065857 78 202 2.0 6.0 0.00 0.00 0.00 47 1017.7
20260905064357 78 202 1.0 3.0 0.00 0.00 0.00 47 1017.8
20260905062857 78 202 0.0 3.0 0.00 0.00 0.00 47 1017.7
20260905061357 77 180 1.0 2.0 0.00 0.00 0.00 47 1017.5
20260905055856 77 158 2.0 2.0 0.00 0.00 0.00 47 1017.5
20260905054357 76 158 0.0 0.0 0.00 0.00 0.00 49 1017.0
20260905052856 76 158 0.0 1.0 0.00 0.00 0.00 48 1017.2
20260905051356 78 135 1.0 4.0 0.00 0.00 0.00 45 1017.2
20260905045857 78 202 0.0 1.0 0.00 0.00 0.00 45 1017.3
20260905044357 78 202 0.0 0.0 0.00 0.00 0.00 45 1017.3
20260905042856 79 202 0.0 1.0 0.00 0.00 0.00 44 1017.1
20260905041357 81 292 0.0 2.0 0.00 0.00 0.00 41 1017.0
20260905035855 81 292 2.0 2.0 0.00 0.00 0.00 41 1016.9
20260905034356 81 292 0.0 4.0 0.00 0.00 0.00 42 1016.9
20260905032857 80 292 3.0 6.0 0.00 0.00 0.00 44 1017.0
20260905031357 78 292 3.0 3.0 0.00 0.00 0.00 47 1017.1
20260905025857 77 315 3.0 4.0 0.00 0.00 0.00 48 1017.2
20260905024356 80 360 1.0 2.0 0.00 0.00 0.00 43 1017.1
20260905022857 82 292 0.0 2.0 0.00 0.00 0.00 40 1017.3
20260905021356 81 292 0.0 2.0 0.00 0.00 0.00 42 1017.0
20260905015856 81 270 0.0 2.0 0.00 0.00 0.00 43 1017.2
20260905014355 83 90 0.0 1.0 0.00 0.00 0.00 40 1017.2
20260905012856 83 315 0.0 1.0 0.00 0.00 0.00 40 1017.3
20260905011356 83 315 0.0 1.0 0.00 0.00 0.00 41 1017.4
20260905005856 83 202 0.0 1.0 0.00 0.00 0.00 41 1017.7
20260905004356 82 180 0.0 1.0 0.00 0.00 0.00 45 1017.7
20260905002855 84 135 0.0 3.0 0.00 0.00 0.00 42 1017.9
20260905001355 83 248 0.0 0.0 0.00 0.00 0.00 43 1018.2
20260904235856 83 292 0.0 1.0 0.00 0.00 0.00 43 1018.8
20260904234354 84 292 0.0 2.0 0.00 0.00 0.00 42 1019.3
20260904232855 84 292 1.0 3.0 0.00 0.00 0.00 41 1019.1
20260904231354 85 292 3.0 9.0 0.00 0.00 0.00 41 1019.1
20260904225855 85 292 6.0 11.0 0.00 0.00 0.00 41 1019.1